Time,TemperatureF,DewpointF,PressureIn,WindDirection,WindDirectionDegrees,WindSpeedMPH,WindSpeedGustMPH,Humidity,HourlyPrecipIn,Conditions,Clouds,dailyrainin,SoftwareType,DateUTC
2013-03-26 00:04:00,30.0,21.8,30.43,NW,308,0.0,0.0,71,0.00,,,0.00,LWC2 V0.39 B123,2013-03-26 06:04:00,
2013-03-26 00:09:00,29.8,21.6,30.43,NE,35,2.0,2.0,71,0.00,,,0.00,LWC2 V0.39 B123,2013-03-26 06:09:00,
2013-03-26 00:14:00,29.7,21.5,30.43,NW,326,0.0,1.0,71,0.00,,,0.00,LWC2 V0.39 B123,2013-03-26 06:14:00,
2013-03-26 00:19:00,29.6,21.7,30.43,NNE,20,0.0,2.0,72,0.00,,,0.00,LWC2 V0.39 B123,2013-03-26 06:19:00,
2013-03-26 00:24:00,29.5,21.6,30.43,NW,312,1.0,2.0,72,0.00,,,0.00,LWC2 V0.39 B123,2013-03-26 06:24:00,
2013-03-26 00:29:00,29.2,21.3,30.43,NW,312,1.0,1.0,72,0.00,,,0.00,LWC2 V0.39 B123,2013-03-26 06:29:00,
2013-03-26 00:34:00,29.0,21.1,30.43,NW,309,0.0,2.0,72,0.00,,,0.00,LWC2 V0.39 B123,2013-03-26 06:34:00,
2013-03-26 00:39:00,29.0,21.4,30.43,NNW,329,1.0,1.0,73,0.00,,,0.00,LWC2 V0.39 B123,2013-03-26 06:39:00,
2013-03-26 00:44:00,29.0,21.4,30.43,North,1,0.0,0.0,73,0.00,,,0.00,LWC2 V0.39 B123,2013-03-26 06:44:00,
2013-03-26 00:49:00,29.1,21.5,30.43,NW,314,2.0,2.0,73,0.00,,,0.00,LWC2 V0.39 B123,2013-03-26 06:49:00,
2013-03-26 00:54:00,28.9,21.4,30.43,NW,308,1.0,2.0,73,0.00,,,0.00,LWC2 V0.39 B123,2013-03-26 06:54:00,
2013-03-26 00:59:00,28.6,21.1,30.43,NW,307,0.0,0.0,73,0.00,,,0.00,LWC2 V0.39 B123,2013-03-26 06:59:00,
2013-03-26 01:04:00,28.5,21.3,30.43,NW,308,0.0,0.0,74,0.00,,,0.00,LWC2 V0.39 B123,2013-03-26 07:04:00,
2013-03-26 01:09:00,28.4,21.2,30.44,NW,315,0.0,1.0,74,0.00,,,0.00,LWC2 V0.39 B123,2013-03-26 07:09:00,
2013-03-26 01:14:00,28.4,21.2,30.43,WNW,297,1.0,2.0,74,0.00,,,0.00,LWC2 V0.39 B123,2013-03-26 07:14:00,
2013-03-26 01:19:00,28.2,21.3,30.44,WNW,299,0.0,1.0,75,0.00,,,0.00,LWC2 V0.39 B123,2013-03-26 07:19:00,
2013-03-26 01:24:00,28.0,21.1,30.44,WNW,301,0.0,0.0,75,0.00,,,0.00,LWC2 V0.39 B123,2013-03-26 07:24:00,
2013-03-26 01:29:00,27.6,21.0,30.44,WNW,300,0.0,0.0,76,0.00,,,0.00,LWC2 V0.39 B123,2013-03-26 07:29:00,
2013-03-26 01:34:00,27.2,20.7,30.44,WNW,301,0.0,0.0,76,0.00,,,0.00,LWC2 V0.39 B123,2013-03-26 07:34:00,
2013-03-26 01:39:00,26.7,20.5,30.44,NNE,16,0.0,0.0,77,0.00,,,0.00,LWC2 V0.39 B123,2013-03-26 07:39:00,
2013-03-26 01:44:00,26.3,20.4,30.44,NW,308,0.0,0.0,78,0.00,,,0.00,LWC2 V0.39 B123,2013-03-26 07:44:00,
2013-03-26 01:49:00,26.3,20.4,30.44,NW,321,1.0,1.0,78,0.00,,,0.00,LWC2 V0.39 B123,2013-03-26 07:49:00,
2013-03-26 01:54:00,26.6,20.7,30.44,NW,305,1.0,1.0,78,0.00,,,0.00,LWC2 V0.39 B123,2013-03-26 07:54:00,
2013-03-26 01:59:00,26.4,20.5,30.44,NW,323,1.0,2.0,78,0.00,,,0.00,LWC2 V0.39 B123,2013-03-26 07:59:00,
2013-03-26 02:04:00,26.5,20.3,30.44,NW,322,0.0,1.0,77,0.00,,,0.00,LWC2 V0.39 B123,2013-03-26 08:04:00,
2013-03-26 02:09:00,26.5,20.3,30.44,NW,321,0.0,0.0,77,0.00,,,0.00,LWC2 V0.39 B123,2013-03-26 08:09:00,
2013-03-26 02:14:00,26.3,20.1,30.44,NW,321,0.0,0.0,77,0.00,,,0.00,LWC2 V0.39 B123,2013-03-26 08:14:00,
2013-03-26 02:19:00,26.3,20.1,30.44,NW,321,0.0,0.0,77,0.00,,,0.00,LWC2 V0.39 B123,2013-03-26 08:19:00,
2013-03-26 02:24:00,26.3,20.1,30.44,NW,321,0.0,0.0,77,0.00,,,0.00,LWC2 V0.39 B123,2013-03-26 08:24:00,
2013-03-26 02:29:00,26.1,20.2,30.44,NW,321,0.0,0.0,78,0.00,,,0.00,LWC2 V0.39 B123,2013-03-26 08:29:00,
2013-03-26 02:34:00,26.0,20.4,30.44,NW,323,0.0,0.0,79,0.00,,,0.00,LWC2 V0.39 B123,2013-03-26 08:34:00,
2013-03-26 02:39:00,26.1,20.5,30.44,WNW,297,0.0,0.0,79,0.00,,,0.00,LWC2 V0.39 B123,2013-03-26 08:39:00,
2013-03-26 02:44:00,26.3,20.7,30.44,WNW,301,0.0,0.0,79,0.00,,,0.00,LWC2 V0.39 B123,2013-03-26 08:44:00,
2013-03-26 02:49:00,26.3,20.7,30.44,NW,306,0.0,0.0,79,0.00,,,0.00,LWC2 V0.39 B123,2013-03-26 08:49:00,
2013-03-26 02:54:00,26.5,20.6,30.43,NW,305,0.0,0.0,78,0.00,,,0.00,LWC2 V0.39 B123,2013-03-26 08:54:00,
2013-03-26 02:59:00,26.6,20.7,30.43,NNE,15,0.0,0.0,78,0.00,,,0.00,LWC2 V0.39 B123,2013-03-26 08:59:00,
2013-03-26 03:04:00,26.7,20.8,30.43,NW,326,0.0,1.0,78,0.00,,,0.00,LWC2 V0.39 B123,2013-03-26 09:04:00,
2013-03-26 03:09:00,26.7,20.8,30.43,NW,326,0.0,0.0,78,0.00,,,0.00,LWC2 V0.39 B123,2013-03-26 09:09:00,
2013-03-26 03:14:00,26.7,20.8,30.43,NW,323,1.0,1.0,78,0.00,,,0.00,LWC2 V0.39 B123,2013-03-26 09:14:00,
2013-03-26 03:19:00,26.9,21.0,30.43,NE,37,1.0,1.0,78,0.00,,,0.00,LWC2 V0.39 B123,2013-03-26 09:19:00,
2013-03-26 03:25:00,27.0,21.1,30.43,NNW,332,0.0,2.0,78,0.00,,,0.00,LWC2 V0.39 B123,2013-03-26 09:25:00,
2013-03-26 03:30:00,27.0,20.8,30.43,NNE,20,1.0,2.0,77,0.00,,,0.00,LWC2 V0.39 B123,2013-03-26 09:30:00,
2013-03-26 03:35:00,27.1,21.2,30.43,NNW,328,0.0,1.0,78,0.00,,,0.00,LWC2 V0.39 B123,2013-03-26 09:35:00,
2013-03-26 03:40:00,27.1,21.2,30.43,NNE,25,0.0,3.0,78,0.00,,,0.00,LWC2 V0.39 B123,2013-03-26 09:40:00,
2013-03-26 03:45:00,27.0,21.1,30.44,North,359,0.0,0.0,78,0.00,,,0.00,LWC2 V0.39 B123,2013-03-26 09:45:00,
2013-03-26 03:50:00,26.9,21.3,30.44,NW,305,0.0,0.0,79,0.00,,,0.00,LWC2 V0.39 B123,2013-03-26 09:50:00,
2013-03-26 03:55:00,26.7,21.1,30.44,NW,305,0.0,0.0,79,0.00,,,0.00,LWC2 V0.39 B123,2013-03-26 09:55:00,
2013-03-26 04:00:00,26.5,21.2,30.44,NW,305,0.0,0.0,80,0.00,,,0.00,LWC2 V0.39 B123,2013-03-26 10:00:00,
2013-03-26 04:05:00,26.2,20.9,30.44,NW,305,0.0,0.0,80,0.00,,,0.00,LWC2 V0.39 B123,2013-03-26 10:05:00,
2013-03-26 04:10:00,26.0,21.0,30.44,NW,305,1.0,1.0,81,0.00,,,0.00,LWC2 V0.39 B123,2013-03-26 10:10:00,
2013-03-26 04:15:00,26.1,21.1,30.44,NW,304,0.0,0.0,81,0.00,,,0.00,LWC2 V0.39 B123,2013-03-26 10:15:00,
2013-03-26 04:20:00,26.1,21.1,30.44,NW,304,0.0,0.0,81,0.00,,,0.00,LWC2 V0.39 B123,2013-03-26 10:20:00,
2013-03-26 04:25:00,26.1,21.4,30.44,NW,305,0.0,0.0,82,0.00,,,0.00,LWC2 V0.39 B123,2013-03-26 10:25:00,
2013-03-26 04:30:00,26.1,21.4,30.44,NNE,27,1.0,1.0,82,0.00,,,0.00,LWC2 V0.39 B123,2013-03-26 10:30:00,
2013-03-26 04:35:00,26.2,21.5,30.44,North,1,0.0,1.0,82,0.00,,,0.00,LWC2 V0.39 B123,2013-03-26 10:35:00,
2013-03-26 04:40:00,26.3,21.6,30.44,WNW,298,0.0,0.0,82,0.00,,,0.00,LWC2 V0.39 B123,2013-03-26 10:40:00,
2013-03-26 04:45:00,25.9,21.2,30.44,WNW,297,0.0,1.0,82,0.00,,,0.00,LWC2 V0.39 B123,2013-03-26 10:45:00,
2013-03-26 04:50:00,25.8,21.4,30.44,WNW,298,0.0,0.0,83,0.00,,,0.00,LWC2 V0.39 B123,2013-03-26 10:50:00,
2013-03-26 04:55:00,25.8,21.4,30.44,WNW,299,0.0,1.0,83,0.00,,,0.00,LWC2 V0.39 B123,2013-03-26 10:55:00,
2013-03-26 05:00:00,25.6,21.2,30.44,WNW,298,1.0,1.0,83,0.00,,,0.00,LWC2 V0.39 B123,2013-03-26 11:00:00,
2013-03-26 05:05:00,25.5,21.1,30.44,WNW,299,0.0,1.0,83,0.00,,,0.00,LWC2 V0.39 B123,2013-03-26 11:05:00,
2013-03-26 05:10:00,25.4,21.0,30.44,WNW,300,0.0,0.0,83,0.00,,,0.00,LWC2 V0.39 B123,2013-03-26 11:10:00,
2013-03-26 05:15:00,25.3,20.9,30.45,NW,318,1.0,1.0,83,0.00,,,0.00,LWC2 V0.39 B123,2013-03-26 11:15:00,
2013-03-26 05:20:00,25.4,21.0,30.45,NW,311,0.0,1.0,83,0.00,,,0.00,LWC2 V0.39 B123,2013-03-26 11:20:00,
2013-03-26 05:25:00,25.4,21.0,30.45,NW,311,0.0,1.0,83,0.00,,,0.00,LWC2 V0.39 B123,2013-03-26 11:25:00,
2013-03-26 05:30:00,25.4,20.7,30.45,NW,311,0.0,0.0,82,0.00,,,0.00,LWC2 V0.39 B123,2013-03-26 11:30:00,
2013-03-26 05:35:00,25.1,20.4,30.46,NW,311,0.0,0.0,82,0.00,,,0.00,LWC2 V0.39 B123,2013-03-26 11:35:00,
2013-03-26 05:40:00,25.1,20.4,30.46,NW,316,0.0,2.0,82,0.00,,,0.00,LWC2 V0.39 B123,2013-03-26 11:40:00,
2013-03-26 05:45:00,24.9,20.2,30.46,NW,315,1.0,1.0,82,0.00,,,0.00,LWC2 V0.39 B123,2013-03-26 11:45:00,
2013-03-26 05:50:00,24.9,20.2,30.46,NW,307,2.0,2.0,82,0.00,,,0.00,LWC2 V0.39 B123,2013-03-26 11:50:00,
2013-03-26 05:55:00,24.9,20.2,30.47,NW,310,0.0,1.0,82,0.00,,,0.00,LWC2 V0.39 B123,2013-03-26 11:55:00,
2013-03-26 06:00:00,24.9,20.5,30.46,NW,316,1.0,1.0,83,0.00,,,0.00,LWC2 V0.39 B123,2013-03-26 12:00:00,
2013-03-26 06:05:00,24.5,20.1,30.47,NW,316,0.0,0.0,83,0.00,,,0.00,LWC2 V0.39 B123,2013-03-26 12:05:00,
2013-03-26 06:10:00,24.3,20.2,30.47,NW,316,0.0,0.0,84,0.00,,,0.00,LWC2 V0.39 B123,2013-03-26 12:10:00,
2013-03-26 06:15:00,24.1,20.0,30.47,NW,316,0.0,0.0,84,0.00,,,0.00,LWC2 V0.39 B123,2013-03-26 12:15:00,
2013-03-26 06:21:00,23.7,19.6,30.47,NW,316,0.0,0.0,84,0.00,,,0.00,LWC2 V0.39 B123,2013-03-26 12:21:00,
2013-03-26 06:26:00,23.3,19.2,30.47,NW,316,0.0,0.0,84,0.00,,,0.00,LWC2 V0.39 B123,2013-03-26 12:26:00,
2013-03-26 06:31:00,23.0,18.9,30.47,NW,316,0.0,0.0,84,0.00,,,0.00,LWC2 V0.39 B123,2013-03-26 12:31:00,
2013-03-26 06:36:00,23.1,19.3,30.47,NW,316,0.0,0.0,85,0.00,,,0.00,LWC2 V0.39 B123,2013-03-26 12:36:00,
2013-03-26 06:41:00,23.4,19.6,30.47,NW,317,0.0,0.0,85,0.00,,,0.00,LWC2 V0.39 B123,2013-03-26 12:41:00,
2013-03-26 06:47:00,24.2,20.6,30.47,NW,317,0.0,0.0,86,0.00,,,0.00,LWC2 V0.39 B123,2013-03-26 12:47:00,
2013-03-26 06:52:00,25.3,21.7,30.47,NW,316,0.0,0.0,86,0.00,,,0.00,LWC2 V0.39 B123,2013-03-26 12:52:00,
2013-03-26 06:57:00,25.7,21.5,30.48,NW,316,0.0,0.0,84,0.00,,,0.00,LWC2 V0.39 B123,2013-03-26 12:57:00,
2013-03-26 07:02:00,26.1,21.7,30.48,NW,316,0.0,0.0,83,0.00,,,0.00,LWC2 V0.39 B123,2013-03-26 13:02:00,
2013-03-26 07:07:00,26.4,22.0,30.48,NW,316,0.0,0.0,83,0.00,,,0.00,LWC2 V0.39 B123,2013-03-26 13:07:00,
2013-03-26 07:12:00,26.7,22.0,30.48,NW,316,0.0,0.0,82,0.00,,,0.00,LWC2 V0.39 B123,2013-03-26 13:12:00,
2013-03-26 07:17:00,27.2,22.2,30.48,NW,316,0.0,0.0,81,0.00,,,0.00,LWC2 V0.39 B123,2013-03-26 13:17:00,
2013-03-26 07:22:00,27.4,22.1,30.48,NW,316,0.0,0.0,80,0.00,,,0.00,LWC2 V0.39 B123,2013-03-26 13:22:00,
2013-03-26 07:27:00,27.7,22.4,30.48,NW,316,0.0,0.0,80,0.00,,,0.00,LWC2 V0.39 B123,2013-03-26 13:27:00,
2013-03-26 07:32:00,28.2,22.8,30.49,NW,316,0.0,0.0,80,0.00,,,0.00,LWC2 V0.39 B123,2013-03-26 13:32:00,
2013-03-26 07:37:00,28.8,23.4,30.48,NE,39,0.0,0.0,80,0.00,,,0.00,LWC2 V0.39 B123,2013-03-26 13:37:00,
2013-03-26 07:42:00,29.3,23.3,30.49,NNE,20,2.0,3.0,78,0.00,,,0.00,LWC2 V0.39 B123,2013-03-26 13:42:00,
2013-03-26 07:47:00,29.4,22.5,30.49,ENE,57,2.0,4.0,75,0.00,,,0.00,LWC2 V0.39 B123,2013-03-26 13:47:00,
2013-03-26 07:52:00,29.6,22.3,30.49,NNE,32,2.0,3.0,74,0.00,,,0.00,LWC2 V0.39 B123,2013-03-26 13:52:00,
2013-03-26 07:57:00,30.0,22.7,30.49,NNE,20,2.0,4.0,74,0.00,,,0.00,LWC2 V0.39 B123,2013-03-26 13:57:00,
2013-03-26 08:02:00,30.2,22.9,30.49,NW,316,1.0,3.0,74,0.00,,,0.00,LWC2 V0.39 B123,2013-03-26 14:02:00,
2013-03-26 08:07:00,30.9,23.6,30.49,NNW,332,1.0,2.0,74,0.00,,,0.00,LWC2 V0.39 B123,2013-03-26 14:07:00,
2013-03-26 08:12:00,31.4,23.8,30.50,NNE,29,1.0,3.0,73,0.00,,,0.00,LWC2 V0.39 B123,2013-03-26 14:12:00,
2013-03-26 08:17:00,31.7,24.1,30.50,NNW,335,1.0,2.0,73,0.00,,,0.00,LWC2 V0.39 B123,2013-03-26 14:17:00,
2013-03-26 08:22:00,32.0,24.3,30.50,NW,314,0.0,2.0,73,0.00,,,0.00,LWC2 V0.39 B123,2013-03-26 14:22:00,
2013-03-26 08:28:00,32.3,24.3,30.50,NNE,13,1.0,3.0,72,0.00,,,0.00,LWC2 V0.39 B123,2013-03-26 14:28:00,
2013-03-26 08:33:00,32.6,24.6,30.50,NE,40,2.0,3.0,72,0.00,,,0.00,LWC2 V0.39 B123,2013-03-26 14:33:00,
2013-03-26 08:38:00,33.1,25.1,30.50,NNW,330,1.0,4.0,72,0.00,,,0.00,LWC2 V0.39 B123,2013-03-26 14:38:00,
2013-03-26 08:43:00,33.4,24.7,30.50,NNW,343,1.0,5.0,70,0.00,,,0.00,LWC2 V0.39 B123,2013-03-26 14:43:00,
2013-03-26 08:48:00,33.5,24.8,30.50,NW,311,4.0,4.0,70,0.00,,,0.00,LWC2 V0.39 B123,2013-03-26 14:48:00,
2013-03-26 08:53:00,33.7,25.3,30.50,WNW,301,2.0,3.0,71,0.00,,,0.00,LWC2 V0.39 B123,2013-03-26 14:53:00,
2013-03-26 08:58:00,34.0,24.9,30.50,NE,46,2.0,3.0,69,0.00,,,0.00,LWC2 V0.39 B123,2013-03-26 14:58:00,
2013-03-26 09:03:00,34.5,24.7,30.50,North,355,3.0,3.0,67,0.00,,,0.00,LWC2 V0.39 B123,2013-03-26 15:03:00,
2013-03-26 09:08:00,34.5,24.3,30.50,ENE,65,0.0,1.0,66,0.00,,,0.00,LWC2 V0.39 B123,2013-03-26 15:08:00,
2013-03-26 09:13:00,35.2,25.4,30.50,WNW,285,1.0,1.0,67,0.00,,,0.00,LWC2 V0.39 B123,2013-03-26 15:13:00,
2013-03-26 09:18:00,35.7,25.5,30.50,West,263,1.0,2.0,66,0.00,,,0.00,LWC2 V0.39 B123,2013-03-26 15:18:00,
2013-03-26 09:23:00,36.0,24.3,30.50,NE,53,3.0,5.0,62,0.00,,,0.00,LWC2 V0.39 B123,2013-03-26 15:23:00,
2013-03-26 09:28:00,36.2,24.8,30.50,North,355,0.0,4.0,63,0.00,,,0.00,LWC2 V0.39 B123,2013-03-26 15:28:00,
2013-03-26 09:33:00,36.8,24.6,30.50,West,276,3.0,3.0,61,0.00,,,0.00,LWC2 V0.39 B123,2013-03-26 15:33:00,
2013-03-26 09:38:00,37.3,24.3,30.50,NNE,31,0.0,5.0,59,0.00,,,0.00,LWC2 V0.39 B123,2013-03-26 15:38:00,
2013-03-26 09:43:00,37.5,24.9,30.50,NNE,18,3.0,4.0,60,0.00,,,0.00,LWC2 V0.39 B123,2013-03-26 15:43:00,
2013-03-26 09:48:00,37.4,24.0,30.50,NNE,22,2.0,5.0,58,0.00,,,0.00,LWC2 V0.39 B123,2013-03-26 15:48:00,
2013-03-26 09:53:00,37.4,24.8,30.50,East,99,3.0,4.0,60,0.00,,,0.00,LWC2 V0.39 B123,2013-03-26 15:53:00,
2013-03-26 09:58:00,37.9,24.5,30.50,WNW,286,3.0,3.0,58,0.00,,,0.00,LWC2 V0.39 B123,2013-03-26 15:58:00,
2013-03-26 10:03:00,38.0,24.1,30.49,North,7,2.0,3.0,57,0.00,,,0.00,LWC2 V0.39 B123,2013-03-26 16:03:00,
2013-03-26 10:08:00,38.7,24.4,30.49,ENE,77,4.0,7.0,56,0.00,,,0.00,LWC2 V0.39 B123,2013-03-26 16:08:00,
2013-03-26 10:13:00,38.8,24.5,30.49,NNE,13,2.0,3.0,56,0.00,,,0.00,LWC2 V0.39 B123,2013-03-26 16:13:00,
2013-03-26 10:18:00,38.8,24.5,30.49,NNE,25,0.0,1.0,56,0.00,,,0.00,LWC2 V0.39 B123,2013-03-26 16:18:00,
2013-03-26 10:23:00,39.2,24.8,30.49,WNW,288,2.0,5.0,56,0.00,,,0.00,LWC2 V0.39 B123,2013-03-26 16:23:00,
2013-03-26 10:28:00,39.5,24.2,30.49,NNE,25,3.0,5.0,54,0.00,,,0.00,LWC2 V0.39 B123,2013-03-26 16:28:00,
2013-03-26 10:33:00,39.9,24.2,30.49,NE,39,5.0,5.0,53,0.00,,,0.00,LWC2 V0.39 B123,2013-03-26 16:33:00,
2013-03-26 10:38:00,39.9,24.2,30.49,NNE,27,4.0,9.0,53,0.00,,,0.00,LWC2 V0.39 B123,2013-03-26 16:38:00,
2013-03-26 10:43:00,40.0,23.3,30.49,NNE,31,1.0,5.0,51,0.00,,,0.00,LWC2 V0.39 B123,2013-03-26 16:43:00,
2013-03-26 10:48:00,40.4,23.2,30.49,SSW,195,1.0,3.0,50,0.00,,,0.00,LWC2 V0.39 B123,2013-03-26 16:48:00,
2013-03-26 10:53:00,40.7,23.5,30.48,NE,47,4.0,6.0,50,0.00,,,0.00,LWC2 V0.39 B123,2013-03-26 16:53:00,
2013-03-26 10:58:00,40.8,24.1,30.48,WNW,301,2.0,5.0,51,0.00,,,0.00,LWC2 V0.39 B123,2013-03-26 16:58:00,
2013-03-26 11:03:00,41.4,24.6,30.48,SSE,164,1.0,3.0,51,0.00,,,0.00,LWC2 V0.39 B123,2013-03-26 17:03:00,
2013-03-26 11:08:00,41.9,24.1,30.47,NE,36,3.0,6.0,49,0.00,,,0.00,LWC2 V0.39 B123,2013-03-26 17:08:00,
2013-03-26 11:13:00,41.3,23.6,30.48,NNE,19,2.0,8.0,49,0.00,,,0.00,LWC2 V0.39 B123,2013-03-26 17:13:00,
2013-03-26 11:18:00,41.5,24.3,30.47,NE,51,3.0,6.0,50,0.00,,,0.00,LWC2 V0.39 B123,2013-03-26 17:18:00,
2013-03-26 11:23:00,41.8,23.1,30.47,NNE,22,1.0,4.0,47,0.00,,,0.00,LWC2 V0.39 B123,2013-03-26 17:23:00,
2013-03-26 11:28:00,42.2,23.9,30.47,West,262,1.0,3.0,48,0.00,,,0.00,LWC2 V0.39 B123,2013-03-26 17:28:00,
2013-03-26 11:33:00,42.3,22.5,30.47,NE,34,2.0,3.0,45,0.00,,,0.00,LWC2 V0.39 B123,2013-03-26 17:33:00,
2013-03-26 11:38:00,42.7,23.4,30.47,NE,51,4.0,6.0,46,0.00,,,0.00,LWC2 V0.39 B123,2013-03-26 17:38:00,
2013-03-26 11:43:00,43.1,23.7,30.46,WNW,302,2.0,3.0,46,0.00,,,0.00,LWC2 V0.39 B123,2013-03-26 17:43:00,
2013-03-26 11:48:00,42.9,23.0,30.46,NE,54,4.0,6.0,45,0.00,,,0.00,LWC2 V0.39 B123,2013-03-26 17:48:00,
2013-03-26 11:53:00,43.2,23.8,30.46,ENE,73,3.0,7.0,46,0.00,,,0.00,LWC2 V0.39 B123,2013-03-26 17:53:00,
2013-03-26 11:58:00,43.7,23.8,30.45,North,5,0.0,2.0,45,0.00,,,0.00,LWC2 V0.39 B123,2013-03-26 17:58:00,
2013-03-26 12:03:00,44.6,23.5,30.46,NNE,25,4.0,5.0,43,0.00,,,0.00,LWC2 V0.39 B123,2013-03-26 18:03:00,
2013-03-26 12:08:00,44.1,22.5,30.46,North,1,2.0,6.0,42,0.00,,,0.00,LWC2 V0.39 B123,2013-03-26 18:08:00,
2013-03-26 12:13:00,44.4,23.3,30.45,NNE,13,6.0,6.0,43,0.00,,,0.00,LWC2 V0.39 B123,2013-03-26 18:13:00,
2013-03-26 12:18:00,44.4,23.3,30.45,NW,321,2.0,4.0,43,0.00,,,0.00,LWC2 V0.39 B123,2013-03-26 18:18:00,
2013-03-26 12:23:00,45.1,23.4,30.45,ESE,108,1.0,2.0,42,0.00,,,0.00,LWC2 V0.39 B123,2013-03-26 18:23:00,
2013-03-26 12:28:00,45.9,22.4,30.44,WSW,239,1.0,5.0,39,0.00,,,0.00,LWC2 V0.39 B123,2013-03-26 18:28:00,
2013-03-26 12:33:00,45.8,23.5,30.44,NW,326,1.0,4.0,41,0.00,,,0.00,LWC2 V0.39 B123,2013-03-26 18:33:00,
2013-03-26 12:38:00,45.8,23.5,30.44,NW,311,2.0,4.0,41,0.00,,,0.00,LWC2 V0.39 B123,2013-03-26 18:38:00,
2013-03-26 12:43:00,46.6,24.2,30.44,ESE,119,3.0,4.0,41,0.00,,,0.00,LWC2 V0.39 B123,2013-03-26 18:43:00,
2013-03-26 12:48:00,46.2,23.8,30.43,NNE,25,3.0,5.0,41,0.00,,,0.00,LWC2 V0.39 B123,2013-03-26 18:48:00,
2013-03-26 12:53:00,45.9,23.5,30.43,NNE,18,2.0,5.0,41,0.00,,,0.00,LWC2 V0.39 B123,2013-03-26 18:53:00,
2013-03-26 12:58:00,46.3,23.3,30.43,NNE,14,7.0,9.0,40,0.00,,,0.00,LWC2 V0.39 B123,2013-03-26 18:58:00,
2013-03-26 13:03:00,46.3,22.7,30.42,WNW,290,3.0,4.0,39,0.00,,,0.00,LWC2 V0.39 B123,2013-03-26 19:03:00,
2013-03-26 13:08:00,46.6,22.4,30.42,ENE,73,1.0,6.0,38,0.00,,,0.00,LWC2 V0.39 B123,2013-03-26 19:08:00,
2013-03-26 13:13:00,47.2,24.7,30.42,NE,47,2.0,4.0,41,0.00,,,0.00,LWC2 V0.39 B123,2013-03-26 19:13:00,
2013-03-26 13:18:00,47.8,23.4,30.42,ENE,70,1.0,8.0,38,0.00,,,0.00,LWC2 V0.39 B123,2013-03-26 19:18:00,
2013-03-26 13:23:00,47.1,22.8,30.42,North,4,4.0,6.0,38,0.00,,,0.00,LWC2 V0.39 B123,2013-03-26 19:23:00,
2013-03-26 13:28:00,47.2,22.9,30.41,North,5,4.0,5.0,38,0.00,,,0.00,LWC2 V0.39 B123,2013-03-26 19:28:00,
2013-03-26 13:33:00,47.4,24.9,30.41,WNW,294,3.0,3.0,41,0.00,,,0.00,LWC2 V0.39 B123,2013-03-26 19:33:00,
2013-03-26 13:38:00,48.4,24.6,30.41,NNW,335,1.0,4.0,39,0.00,,,0.00,LWC2 V0.39 B123,2013-03-26 19:38:00,
2013-03-26 13:43:00,48.8,24.3,30.41,North,8,1.0,2.0,38,0.00,,,0.00,LWC2 V0.39 B123,2013-03-26 19:43:00,
2013-03-26 13:48:00,49.1,24.0,30.40,NE,42,4.0,5.0,37,0.00,,,0.00,LWC2 V0.39 B123,2013-03-26 19:48:00,
2013-03-26 13:53:00,49.3,24.8,30.40,NE,36,5.0,5.0,38,0.00,,,0.00,LWC2 V0.39 B123,2013-03-26 19:53:00,
2013-03-26 13:58:00,48.8,23.7,30.40,NNE,16,0.0,6.0,37,0.00,,,0.00,LWC2 V0.39 B123,2013-03-26 19:58:00,
2013-03-26 14:03:00,49.2,25.3,30.39,NNE,19,3.0,5.0,39,0.00,,,0.00,LWC2 V0.39 B123,2013-03-26 20:03:00,
2013-03-26 14:08:00,49.7,25.1,30.39,North,7,1.0,5.0,38,0.00,,,0.00,LWC2 V0.39 B123,2013-03-26 20:08:00,
2013-03-26 14:13:00,49.9,25.3,30.39,East,99,1.0,2.0,38,0.00,,,0.00,LWC2 V0.39 B123,2013-03-26 20:13:00,
2013-03-26 14:19:00,49.8,24.6,30.38,NW,309,2.0,6.0,37,0.00,,,0.00,LWC2 V0.39 B123,2013-03-26 20:19:00,
2013-03-26 14:24:00,49.9,24.7,30.38,ENE,74,2.0,3.0,37,0.00,,,0.00,LWC2 V0.39 B123,2013-03-26 20:24:00,
2013-03-26 14:29:00,50.5,25.2,30.38,WNW,290,3.0,7.0,37,0.00,,,0.00,LWC2 V0.39 B123,2013-03-26 20:29:00,
2013-03-26 14:34:00,50.6,26.6,30.38,SE,124,4.0,8.0,39,0.00,,,0.00,LWC2 V0.39 B123,2013-03-26 20:34:00,
2013-03-26 14:39:00,49.5,24.3,30.38,SSE,158,3.0,4.0,37,0.00,,,0.00,LWC2 V0.39 B123,2013-03-26 20:39:00,
2013-03-26 14:44:00,48.9,24.4,30.38,NE,46,0.0,4.0,38,0.00,,,0.00,LWC2 V0.39 B123,2013-03-26 20:44:00,
2013-03-26 14:49:00,48.9,24.4,30.37,ENE,71,1.0,5.0,38,0.00,,,0.00,LWC2 V0.39 B123,2013-03-26 20:49:00,
2013-03-26 14:54:00,49.5,25.0,30.37,ENE,71,1.0,3.0,38,0.00,,,0.00,LWC2 V0.39 B123,2013-03-26 20:54:00,
2013-03-26 14:59:00,49.7,24.5,30.36,NNE,20,2.0,4.0,37,0.00,,,0.00,LWC2 V0.39 B123,2013-03-26 20:59:00,
2013-03-26 15:04:00,49.8,24.6,30.36,NNE,25,0.0,2.0,37,0.00,,,0.00,LWC2 V0.39 B123,2013-03-26 21:04:00,
2013-03-26 15:09:00,50.8,25.5,30.36,ENE,64,1.0,5.0,37,0.00,,,0.00,LWC2 V0.39 B123,2013-03-26 21:09:00,
2013-03-26 15:14:00,51.2,24.5,30.36,SSW,211,2.0,3.0,35,0.00,,,0.00,LWC2 V0.39 B123,2013-03-26 21:14:00,
2013-03-26 15:19:00,51.8,25.0,30.36,SE,139,1.0,3.0,35,0.00,,,0.00,LWC2 V0.39 B123,2013-03-26 21:19:00,
2013-03-26 15:24:00,52.0,24.5,30.35,WSW,252,6.0,6.0,34,0.00,,,0.00,LWC2 V0.39 B123,2013-03-26 21:24:00,
2013-03-26 15:29:00,52.0,23.8,30.35,ESE,107,1.0,3.0,33,0.00,,,0.00,LWC2 V0.39 B123,2013-03-26 21:29:00,
2013-03-26 15:34:00,51.3,24.6,30.34,East,79,2.0,4.0,35,0.00,,,0.00,LWC2 V0.39 B123,2013-03-26 21:34:00,
2013-03-26 15:39:00,51.3,25.3,30.34,East,80,1.0,4.0,36,0.00,,,0.00,LWC2 V0.39 B123,2013-03-26 21:39:00,
2013-03-26 15:44:00,50.8,24.1,30.34,East,98,2.0,5.0,35,0.00,,,0.00,LWC2 V0.39 B123,2013-03-26 21:44:00,
2013-03-26 15:49:00,50.8,25.5,30.34,East,80,2.0,3.0,37,0.00,,,0.00,LWC2 V0.39 B123,2013-03-26 21:49:00,
2013-03-26 15:54:00,51.1,24.4,30.33,ESE,110,2.0,5.0,35,0.00,,,0.00,LWC2 V0.39 B123,2013-03-26 21:54:00,
2013-03-26 15:59:00,51.1,23.7,30.33,SE,134,0.0,3.0,34,0.00,,,0.00,LWC2 V0.39 B123,2013-03-26 21:59:00,
2013-03-26 16:04:00,51.0,25.0,30.33,NNE,32,0.0,1.0,36,0.00,,,0.00,LWC2 V0.39 B123,2013-03-26 22:04:00,
2013-03-26 16:09:00,52.3,24.8,30.33,ESE,114,1.0,8.0,34,0.00,,,0.00,LWC2 V0.39 B123,2013-03-26 22:09:00,
2013-03-26 16:14:00,52.6,25.0,30.33,SE,129,2.0,5.0,34,0.00,,,0.00,LWC2 V0.39 B123,2013-03-26 22:14:00,
2013-03-26 16:19:00,53.6,23.7,30.33,WSW,255,2.0,3.0,31,0.00,,,0.00,LWC2 V0.39 B123,2013-03-26 22:19:00,
2013-03-26 16:24:00,53.9,24.7,30.32,WSW,246,2.0,4.0,32,0.00,,,0.00,LWC2 V0.39 B123,2013-03-26 22:24:00,
2013-03-26 16:29:00,53.7,23.8,30.32,NE,52,2.0,2.0,31,0.00,,,0.00,LWC2 V0.39 B123,2013-03-26 22:29:00,
2013-03-26 16:34:00,53.8,23.9,30.32,NW,311,4.0,4.0,31,0.00,,,0.00,LWC2 V0.39 B123,2013-03-26 22:34:00,
2013-03-26 16:39:00,53.5,23.6,30.32,NW,326,1.0,3.0,31,0.00,,,0.00,LWC2 V0.39 B123,2013-03-26 22:39:00,
2013-03-26 16:44:00,53.4,22.8,30.32,West,259,2.0,6.0,30,0.00,,,0.00,LWC2 V0.39 B123,2013-03-26 22:44:00,
2013-03-26 16:49:00,53.3,22.7,30.32,South,190,1.0,4.0,30,0.00,,,0.00,LWC2 V0.39 B123,2013-03-26 22:49:00,
2013-03-26 16:54:00,53.7,23.0,30.32,SW,226,2.0,6.0,30,0.00,,,0.00,LWC2 V0.39 B123,2013-03-26 22:54:00,
2013-03-26 16:59:00,53.4,23.5,30.31,WSW,252,1.0,4.0,31,0.00,,,0.00,LWC2 V0.39 B123,2013-03-26 22:59:00,
2013-03-26 17:05:00,52.9,22.3,30.31,SE,136,0.0,1.0,30,0.00,,,0.00,LWC2 V0.39 B123,2013-03-26 23:05:00,
2013-03-26 17:10:00,52.5,22.0,30.31,SE,132,2.0,4.0,30,0.00,,,0.00,LWC2 V0.39 B123,2013-03-26 23:10:00,
2013-03-26 17:15:00,52.8,23.0,30.31,SW,215,4.0,5.0,31,0.00,,,0.00,LWC2 V0.39 B123,2013-03-26 23:15:00,
2013-03-26 17:20:00,53.3,22.7,30.31,NNW,327,2.0,3.0,30,0.00,,,0.00,LWC2 V0.39 B123,2013-03-26 23:20:00,
2013-03-26 17:25:00,53.3,23.4,30.31,WNW,297,1.0,2.0,31,0.00,,,0.00,LWC2 V0.39 B123,2013-03-26 23:25:00,
2013-03-26 17:30:00,53.3,23.4,30.31,WSW,251,2.0,4.0,31,0.00,,,0.00,LWC2 V0.39 B123,2013-03-26 23:30:00,
2013-03-26 17:35:00,53.0,22.4,30.31,South,169,1.0,2.0,30,0.00,,,0.00,LWC2 V0.39 B123,2013-03-26 23:35:00,
2013-03-26 17:40:00,52.4,22.7,30.30,SSW,211,2.0,3.0,31,0.00,,,0.00,LWC2 V0.39 B123,2013-03-26 23:40:00,
2013-03-26 17:45:00,51.8,22.1,30.30,South,181,2.0,3.0,31,0.00,,,0.00,LWC2 V0.39 B123,2013-03-26 23:45:00,
2013-03-26 17:50:00,51.5,21.9,30.30,WSW,246,2.0,2.0,31,0.00,,,0.00,LWC2 V0.39 B123,2013-03-26 23:50:00,
2013-03-26 17:55:00,51.4,22.5,30.30,South,186,3.0,4.0,32,0.00,,,0.00,LWC2 V0.39 B123,2013-03-26 23:55:00,
2013-03-26 18:00:00,51.0,21.4,30.30,West,259,2.0,6.0,31,0.00,,,0.00,LWC2 V0.39 B123,2013-03-27 00:00:00,
2013-03-26 18:05:00,50.9,21.4,30.30,South,190,4.0,4.0,31,0.00,,,0.00,LWC2 V0.39 B123,2013-03-27 00:05:00,
2013-03-26 18:10:00,50.6,21.1,30.29,WSW,239,3.0,5.0,31,0.00,,,0.00,LWC2 V0.39 B123,2013-03-27 00:10:00,
2013-03-26 18:15:00,50.4,21.7,30.30,SW,218,3.0,4.0,32,0.00,,,0.00,LWC2 V0.39 B123,2013-03-27 00:15:00,
2013-03-26 18:20:00,50.2,21.5,30.30,SSW,201,2.0,3.0,32,0.00,,,0.00,LWC2 V0.39 B123,2013-03-27 00:20:00,
2013-03-26 18:25:00,49.7,21.8,30.30,SSW,193,2.0,3.0,33,0.00,,,0.00,LWC2 V0.39 B123,2013-03-27 00:25:00,
2013-03-26 18:30:00,49.2,21.3,30.30,SSE,162,2.0,3.0,33,0.00,,,0.00,LWC2 V0.39 B123,2013-03-27 00:30:00,
2013-03-26 18:35:00,48.8,21.0,30.30,South,181,2.0,2.0,33,0.00,,,0.00,LWC2 V0.39 B123,2013-03-27 00:35:00,
2013-03-26 18:40:00,48.3,20.5,30.30,SSW,198,2.0,3.0,33,0.00,,,0.00,LWC2 V0.39 B123,2013-03-27 00:40:00,
2013-03-26 18:45:00,48.0,21.0,30.30,SE,139,1.0,1.0,34,0.00,,,0.00,LWC2 V0.39 B123,2013-03-27 00:45:00,
2013-03-26 18:50:00,47.7,20.7,30.30,South,186,1.0,3.0,34,0.00,,,0.00,LWC2 V0.39 B123,2013-03-27 00:50:00,
2013-03-26 18:55:00,47.4,21.1,30.30,South,190,0.0,1.0,35,0.00,,,0.00,LWC2 V0.39 B123,2013-03-27 00:55:00,
2013-03-26 19:00:00,47.1,21.5,30.30,South,175,0.0,0.0,36,0.00,,,0.00,LWC2 V0.39 B123,2013-03-27 01:00:00,
2013-03-26 19:05:00,46.8,21.3,30.30,South,172,0.0,1.0,36,0.00,,,0.00,LWC2 V0.39 B123,2013-03-27 01:05:00,
2013-03-26 19:10:00,46.6,21.1,30.30,South,169,0.0,0.0,36,0.00,,,0.00,LWC2 V0.39 B123,2013-03-27 01:10:00,
2013-03-26 19:15:00,46.4,20.9,30.30,SE,132,1.0,2.0,36,0.00,,,0.00,LWC2 V0.39 B123,2013-03-27 01:15:00,
2013-03-26 19:20:00,46.3,20.8,30.30,SE,135,1.0,2.0,36,0.00,,,0.00,LWC2 V0.39 B123,2013-03-27 01:20:00,
2013-03-26 19:25:00,46.2,21.4,30.30,SE,145,1.0,1.0,37,0.00,,,0.00,LWC2 V0.39 B123,2013-03-27 01:25:00,
2013-03-26 19:30:00,46.1,21.3,30.30,SSE,153,1.0,1.0,37,0.00,,,0.00,LWC2 V0.39 B123,2013-03-27 01:30:00,
2013-03-26 19:35:00,46.0,21.2,30.30,SSE,148,1.0,2.0,37,0.00,,,0.00,LWC2 V0.39 B123,2013-03-27 01:35:00,
2013-03-26 19:40:00,45.8,21.0,30.30,SE,146,2.0,2.0,37,0.00,,,0.00,LWC2 V0.39 B123,2013-03-27 01:40:00,
2013-03-26 19:45:00,45.3,21.2,30.30,SSE,150,2.0,3.0,38,0.00,,,0.00,LWC2 V0.39 B123,2013-03-27 01:45:00,
2013-03-26 19:50:00,45.1,21.6,30.30,SSE,150,1.0,3.0,39,0.00,,,0.00,LWC2 V0.39 B123,2013-03-27 01:50:00,
2013-03-26 19:55:00,44.9,21.5,30.30,South,172,4.0,4.0,39,0.00,,,0.00,LWC2 V0.39 B123,2013-03-27 01:55:00,
2013-03-26 20:00:00,44.7,21.9,30.30,SE,146,2.0,3.0,40,0.00,,,0.00,LWC2 V0.39 B123,2013-03-27 02:00:00,
2013-03-26 20:05:00,44.5,21.7,30.30,SE,134,3.0,4.0,40,0.00,,,0.00,LWC2 V0.39 B123,2013-03-27 02:05:00,
2013-03-26 20:10:00,44.1,21.9,30.30,SE,139,1.0,2.0,41,0.00,,,0.00,LWC2 V0.39 B123,2013-03-27 02:10:00,
2013-03-26 20:15:00,44.0,21.8,30.30,SE,137,2.0,4.0,41,0.00,,,0.00,LWC2 V0.39 B123,2013-03-27 02:15:00,
2013-03-26 20:20:00,44.0,21.8,30.30,SE,134,3.0,4.0,41,0.00,,,0.00,LWC2 V0.39 B123,2013-03-27 02:20:00,
2013-03-26 20:25:00,43.8,22.8,30.30,ESE,118,3.0,3.0,43,0.00,,,0.00,LWC2 V0.39 B123,2013-03-27 02:25:00,
2013-03-26 20:30:00,43.3,22.3,30.30,SE,131,2.0,2.0,43,0.00,,,0.00,LWC2 V0.39 B123,2013-03-27 02:30:00,
2013-03-26 20:35:00,42.9,23.0,30.31,ESE,120,1.0,3.0,45,0.00,,,0.00,LWC2 V0.39 B123,2013-03-27 02:35:00,
2013-03-26 20:40:00,42.9,23.0,30.31,SSE,156,4.0,4.0,45,0.00,,,0.00,LWC2 V0.39 B123,2013-03-27 02:40:00,
2013-03-26 20:45:00,42.9,23.6,30.31,SSE,150,3.0,6.0,46,0.00,,,0.00,LWC2 V0.39 B123,2013-03-27 02:45:00,
2013-03-26 20:50:00,42.7,23.9,30.31,ESE,110,3.0,3.0,47,0.00,,,0.00,LWC2 V0.39 B123,2013-03-27 02:50:00,
2013-03-26 20:55:00,42.4,24.1,30.31,SE,132,2.0,4.0,48,0.00,,,0.00,LWC2 V0.39 B123,2013-03-27 02:55:00,
2013-03-26 21:00:00,42.2,24.4,30.31,SSE,156,3.0,4.0,49,0.00,,,0.00,LWC2 V0.39 B123,2013-03-27 03:00:00,
2013-03-26 21:05:00,42.0,24.7,30.31,SE,125,2.0,4.0,50,0.00,,,0.00,LWC2 V0.39 B123,2013-03-27 03:05:00,
2013-03-26 21:10:00,42.0,25.2,30.31,ESE,120,3.0,6.0,51,0.00,,,0.00,LWC2 V0.39 B123,2013-03-27 03:10:00,
2013-03-26 21:15:00,42.0,25.2,30.31,SE,142,3.0,7.0,51,0.00,,,0.00,LWC2 V0.39 B123,2013-03-27 03:15:00,
2013-03-26 21:20:00,42.0,25.2,30.31,SSE,152,2.0,5.0,51,0.00,,,0.00,LWC2 V0.39 B123,2013-03-27 03:20:00,
2013-03-26 21:25:00,41.8,25.5,30.31,SE,137,2.0,7.0,52,0.00,,,0.00,LWC2 V0.39 B123,2013-03-27 03:25:00,
2013-03-26 21:30:00,41.5,25.7,30.30,ESE,117,3.0,5.0,53,0.00,,,0.00,LWC2 V0.39 B123,2013-03-27 03:30:00,
2013-03-26 21:35:00,41.3,25.5,30.30,SE,127,4.0,5.0,53,0.00,,,0.00,LWC2 V0.39 B123,2013-03-27 03:35:00,
2013-03-26 21:40:00,41.3,25.5,30.30,South,172,4.0,7.0,53,0.00,,,0.00,LWC2 V0.39 B123,2013-03-27 03:40:00,
2013-03-26 21:45:00,41.3,25.0,30.30,SSE,167,5.0,6.0,52,0.00,,,0.00,LWC2 V0.39 B123,2013-03-27 03:45:00,
2013-03-26 21:50:00,41.4,25.6,30.31,SE,144,3.0,6.0,53,0.00,,,0.00,LWC2 V0.39 B123,2013-03-27 03:50:00,
2013-03-26 21:55:00,41.2,25.4,30.31,SE,145,4.0,5.0,53,0.00,,,0.00,LWC2 V0.39 B123,2013-03-27 03:55:00,
2013-03-26 22:00:00,40.9,25.6,30.30,SE,146,3.0,5.0,54,0.00,,,0.00,LWC2 V0.39 B123,2013-03-27 04:00:00,
2013-03-26 22:01:00,40.8,25.5,30.30,SE,131,3.0,5.0,54,0.00,,,0.00,LWC2 V0.39 B123,2013-03-27 04:01:00,
2013-03-26 22:02:00,40.7,25.4,30.30,SSE,156,3.0,4.0,54,0.00,,,0.00,LWC2 V0.39 B123,2013-03-27 04:02:00,
2013-03-26 22:07:00,40.7,25.4,30.30,SE,146,3.0,5.0,54,0.00,,,0.00,LWC2 V0.39 B123,2013-03-27 04:07:00,
2013-03-26 22:12:00,40.7,25.4,30.30,SE,124,2.0,5.0,54,0.00,,,0.00,LWC2 V0.39 B123,2013-03-27 04:12:00,
2013-03-26 22:17:00,40.4,25.1,30.30,SE,145,3.0,4.0,54,0.00,,,0.00,LWC2 V0.39 B123,2013-03-27 04:17:00,
2013-03-26 22:22:00,40.3,25.0,30.30,SSE,167,2.0,4.0,54,0.00,,,0.00,LWC2 V0.39 B123,2013-03-27 04:22:00,
2013-03-26 22:27:00,40.1,25.2,30.30,SE,134,4.0,6.0,55,0.00,,,0.00,LWC2 V0.39 B123,2013-03-27 04:27:00,
2013-03-26 22:32:00,40.0,24.7,30.30,ESE,117,5.0,7.0,54,0.00,,,0.00,LWC2 V0.39 B123,2013-03-27 04:32:00,
2013-03-26 22:37:00,40.0,24.7,30.30,SE,128,3.0,5.0,54,0.00,,,0.00,LWC2 V0.39 B123,2013-03-27 04:37:00,
2013-03-26 22:42:00,39.8,25.0,30.30,ESE,121,3.0,5.0,55,0.00,,,0.00,LWC2 V0.39 B123,2013-03-27 04:42:00,
2013-03-26 22:47:00,39.6,25.2,30.29,SE,139,3.0,4.0,56,0.00,,,0.00,LWC2 V0.39 B123,2013-03-27 04:47:00,
2013-03-26 22:52:00,39.6,25.2,30.29,ESE,121,3.0,4.0,56,0.00,,,0.00,LWC2 V0.39 B123,2013-03-27 04:52:00,
2013-03-26 22:57:00,39.5,25.1,30.29,SE,139,4.0,5.0,56,0.00,,,0.00,LWC2 V0.39 B123,2013-03-27 04:57:00,
2013-03-26 23:02:00,39.4,25.4,30.29,ESE,114,3.0,5.0,57,0.00,,,0.00,LWC2 V0.39 B123,2013-03-27 05:02:00,
2013-03-26 23:07:00,39.3,25.4,30.29,SSE,167,6.0,6.0,57,0.00,,,0.00,LWC2 V0.39 B123,2013-03-27 05:07:00,
2013-03-26 23:12:00,39.3,25.4,30.29,SSE,147,3.0,6.0,57,0.00,,,0.00,LWC2 V0.39 B123,2013-03-27 05:12:00,
2013-03-26 23:17:00,39.4,25.4,30.28,SE,129,3.0,4.0,57,0.00,,,0.00,LWC2 V0.39 B123,2013-03-27 05:17:00,
2013-03-26 23:22:00,39.2,25.3,30.28,SE,135,2.0,5.0,57,0.00,,,0.00,LWC2 V0.39 B123,2013-03-27 05:22:00,
2013-03-26 23:27:00,39.1,25.6,30.28,SSE,159,4.0,4.0,58,0.00,,,0.00,LWC2 V0.39 B123,2013-03-27 05:27:00,
2013-03-26 23:32:00,38.9,25.0,30.28,SSE,154,4.0,5.0,57,0.00,,,0.00,LWC2 V0.39 B123,2013-03-27 05:32:00,
2013-03-26 23:37:00,38.9,25.0,30.28,SE,132,5.0,7.0,57,0.00,,,0.00,LWC2 V0.39 B123,2013-03-27 05:37:00,
2013-03-26 23:42:00,38.9,25.0,30.28,SSE,153,4.0,6.0,57,0.00,,,0.00,LWC2 V0.39 B123,2013-03-27 05:42:00,
2013-03-26 23:47:00,38.9,25.0,30.28,SSE,149,5.0,6.0,57,0.00,,,0.00,LWC2 V0.39 B123,2013-03-27 05:47:00,
2013-03-26 23:52:00,38.8,25.3,30.28,SE,140,4.0,5.0,58,0.00,,,0.00,LWC2 V0.39 B123,2013-03-27 05:52:00,
2013-03-26 23:57:00,38.5,25.0,30.28,ESE,110,3.0,5.0,58,0.00,,,0.00,LWC2 V0.39 B123,2013-03-27 05:57:00,